User: anonymous   Login
Location: Lake Superior Provincial Park
(47.3335°N, 84.6162°W)
Time: 13:12:55
(UTC-04:00)
Language:

Cosmos 2333 Rocket - Orbit

View from above orbital plane
View from above orbital plane
View from above satellite
View from above satellite

Ground track
Ground track

The orbit data is extracted from the following two-line orbital elements,

1 24298U 96051B   16270.42377474  .00000057  00000-0  57263-4 0  9999
2 24298  70.8380 257.9976 0018911 220.1681 139.8043 14.12434103 34578
Epoch (UTC): 26 September 2016 10:10:14
Eccentricity: 0.0018911
inclination: 70.8380°
perigee height: 837 km
apogee height: 865 km
right ascension of ascending node: 257.9976°
argument of perigee: 220.1681°
revolutions per day: 14.12434103
mean anomaly at epoch: 139.8043°
orbit number at epoch: 3457

The dashed part of the orbit path shows where the satellite is in the earth's shadow,  

DLR